Weather History for Sunlight Mountain, CO

Change the Weather History Date:

Sunday, August 4, 2013

  Actual Average (KRIL) Record (KRIL)
Temperature  
Mean Temperature 57 °F 73 °F  
Max Temperature 64 °F 90 °F 98 °F (1940)
Min Temperature 50 °F 55 °F 37 °F (1944)
Degree Days  
Heating Degree Days 8 0  
Month to date heating degree days 0  
Since 1 June heating degree days 60  
Since 1 July heating degree days 1  
Cooling Degree Days 0 8  
Month to date cooling degree days 32  
Year to date cooling degree days 375  
Since 1 June cooling degree days 368  
Growing Degree Days 7 (Base 50)    
Moisture  
Dew Point 44 °F    
Average Humidity 67    
Maximum Humidity 88    
Minimum Humidity 49    
Precipitation  
Precipitation 0.00 in 0.05 in 0.54 in (1959)
Month to date precipitation 0.19  
Year to date precipitation 7.76  
Sea Level Pressure  
Sea Level Pressure 30.62 in    
Wind  
Wind Speed 1 mph (SE)    
Max Wind Speed 6 mph    
Max Gust Speed -    
Visibility 10 miles    
Events Rain , Thunderstorm    
T = Trace of Precipitation, MM = Missing Value Source: NWS Daily Summary

Daily Weather History Graph

Daily Weather History Graph

Search for Another Location

Airport:

Trip Planner

Search our weather history database for the weather conditions in past years. The results will help you decide how hot, cold, wet, or windy it might be!

Date:

Astronomy

Aug. 04, 2013 Rise Set
Actual Time 6:12 AM MDT 8:18 PM MDT
Civil Twilight 5:42 AM MDT 8:47 PM MDT
Nautical Twilight 5:06 AM MDT 9:24 PM MDT
Astronomical Twilight 4:26 AM MDT 10:03 PM MDT
Moon 4:15 AM MDT (8/4) 6:43 PM MDT (8/4)
Length of Visible Light 15h 05m
Length of Day
14h 06m
Waning Crescent, 4% of the Moon is Illuminated
Aug 4
Waning Crescent
Aug 6
New
Aug 14
First Quarter
Aug 20
Full
Aug 28
Last Quarter

Hourly Weather History & Observations

Time (MDT) Temp. Dew Point Humidity Pressure Visibility Wind Dir Wind Speed Gust Speed Precip Events Conditions
12:01 AM 53.6 °F 42.8 °F 67% 30.63 in 10.0 mi Calm Calm - N/A   Clear
12:21 AM 53.6 °F 42.8 °F 67% 30.63 in 10.0 mi ESE 3.5 mph - N/A   Clear
12:41 AM 53.6 °F 42.8 °F 67% 30.62 in 10.0 mi SE 3.5 mph - N/A   Clear
1:01 AM 53.6 °F 42.8 °F 67% 30.62 in 10.0 mi SE 3.5 mph - N/A   Clear
1:21 AM 53.6 °F 42.8 °F 67% 30.62 in 10.0 mi Calm Calm - N/A   Clear
1:40 AM 53.6 °F 42.8 °F 67% 30.62 in 10.0 mi SE 3.5 mph - N/A   Clear
2:01 AM 55.4 °F 41.0 °F 58% 30.62 in 10.0 mi Calm Calm - N/A   Clear
2:21 AM 55.4 °F 42.8 °F 63% 30.62 in 10.0 mi Calm Calm - N/A   Clear
2:42 AM 53.6 °F 41.0 °F 62% 30.61 in 10.0 mi Calm Calm - N/A   Clear
3:02 AM 53.6 °F 41.0 °F 62% 30.60 in 10.0 mi Calm Calm - N/A   Clear
3:22 AM 53.6 °F 41.0 °F 62% 30.60 in 10.0 mi Calm Calm - N/A   Clear
3:42 AM 53.6 °F 39.2 °F 58% 30.60 in 10.0 mi Calm Calm - N/A   Clear
4:02 AM 53.6 °F 39.2 °F 58% 30.60 in 10.0 mi Calm Calm - N/A   Clear
4:22 AM 53.6 °F 39.2 °F 58% 30.60 in 10.0 mi Calm Calm - N/A   Clear
4:42 AM 55.4 °F 39.2 °F 54% 30.60 in 10.0 mi Calm Calm - N/A   Clear
5:02 AM 53.6 °F 39.2 °F 58% 30.61 in 10.0 mi Calm Calm - N/A   Clear
5:22 AM 55.4 °F 39.2 °F 54% 30.60 in 10.0 mi Calm Calm - N/A   Clear
5:42 AM 53.6 °F 39.2 °F 58% 30.61 in 10.0 mi Calm Calm - N/A   Clear
6:02 AM 53.6 °F 39.2 °F 58% 30.62 in 10.0 mi Calm Calm - N/A   Clear
6:22 AM 53.6 °F 39.2 °F 58% 30.62 in 10.0 mi Calm Calm - N/A   Clear
6:42 AM 53.6 °F 39.2 °F 58% 30.62 in 10.0 mi Calm Calm - N/A   Clear
7:02 AM 55.4 °F 39.2 °F 54% 30.62 in 10.0 mi Calm Calm - N/A   Clear
7:22 AM 55.4 °F 41.0 °F 58% 30.63 in 10.0 mi Calm Calm - N/A   Clear
7:42 AM 55.4 °F 41.0 °F 58% 30.63 in 10.0 mi Calm Calm - N/A   Clear
8:02 AM 57.2 °F 42.8 °F 59% 30.64 in 10.0 mi Calm Calm - N/A   Clear
8:22 AM 59.0 °F 42.8 °F 55% 30.64 in 10.0 mi Calm Calm - N/A   Clear
8:42 AM 59.0 °F 44.6 °F 59% 30.64 in 10.0 mi Calm Calm - N/A   Clear
9:02 AM 60.8 °F 44.6 °F 55% 30.64 in 10.0 mi Calm Calm - N/A   Clear
9:22 AM 60.8 °F 44.6 °F 55% 30.64 in 10.0 mi Calm Calm - N/A   Clear
9:42 AM 62.6 °F 44.6 °F 52% 30.65 in 10.0 mi Calm Calm - N/A   Clear
10:02 AM 62.6 °F 46.4 °F 55% 30.65 in 10.0 mi WSW 3.5 mph - N/A   Clear
10:22 AM 62.6 °F 46.4 °F 55% 30.65 in 10.0 mi Calm Calm - N/A   Scattered Clouds
10:42 AM 62.6 °F 44.6 °F 52% 30.65 in 10.0 mi Calm Calm - N/A   Scattered Clouds
11:02 AM 62.6 °F 44.6 °F 52% 30.66 in 10.0 mi Calm Calm - N/A   Scattered Clouds
11:22 AM 64.4 °F 44.6 °F 49% 30.65 in 10.0 mi NW 3.5 mph - N/A   Scattered Clouds
11:42 AM 60.8 °F 42.8 °F 52% 30.66 in 10.0 mi Calm Calm - N/A   Scattered Clouds
12:02 PM 62.6 °F 44.6 °F 52% 30.65 in 10.0 mi Calm Calm - N/A   Mostly Cloudy
12:22 PM 60.8 °F 42.8 °F 52% 30.65 in 10.0 mi Calm Calm - N/A Thunderstorm Thunderstorm
12:42 PM 64.4 °F 46.4 °F 52% 30.65 in 10.0 mi Calm Calm - N/A Thunderstorm Thunderstorm
1:01 PM 64.4 °F 46.4 °F 52% 30.64 in 10.0 mi Calm Calm - N/A Thunderstorm Thunderstorm
1:22 PM 53.6 °F 50.0 °F 88% 30.65 in 0.5 mi SSE 5.8 mph - N/A Rain , Thunderstorm Heavy Thunderstorms and Rain
1:42 PM 53.6 °F 50.0 °F 88% 30.64 in 10.0 mi Calm Calm - N/A Rain Light Rain
2:02 PM 55.4 °F 51.8 °F 88% 30.64 in 10.0 mi Calm Calm - N/A   Mostly Cloudy
2:22 PM 59.0 °F 53.6 °F 82% 30.63 in 10.0 mi Calm Calm - N/A Thunderstorm Scattered Clouds
2:42 PM 62.6 °F 53.6 °F 72% 30.63 in 10.0 mi Calm Calm - N/A Thunderstorm Clear
3:02 PM 59.0 °F 50.0 °F 72% 30.62 in 10.0 mi Calm Calm - N/A Thunderstorm Mostly Cloudy
3:22 PM 59.0 °F 50.0 °F 72% 30.62 in 10.0 mi Calm Calm - N/A   Mostly Cloudy
3:42 PM 57.2 °F 50.0 °F 77% 30.62 in 10.0 mi Calm Calm - N/A Thunderstorm Mostly Cloudy
4:01 PM 55.4 °F 50.0 °F 82% 30.61 in 10.0 mi Calm Calm - N/A Thunderstorm Overcast
4:22 PM 55.4 °F 46.4 °F 72% 30.62 in 10.0 mi Calm Calm - N/A   Overcast
4:42 PM 51.8 °F 46.4 °F 82% 30.62 in 10.0 mi SW 3.5 mph - N/A Rain , Thunderstorm Light Thunderstorms and Rain
5:02 PM 51.8 °F 46.4 °F 82% 30.63 in 10.0 mi Calm Calm - N/A Rain , Thunderstorm Light Thunderstorms and Rain
5:22 PM 50.0 °F 46.4 °F 87% 30.64 in 7.0 mi Calm Calm - N/A Rain , Thunderstorm Light Thunderstorms and Rain
5:42 PM 50.0 °F 46.4 °F 87% 30.63 in 10.0 mi Calm Calm - N/A Rain , Thunderstorm Rain
6:00 PM 50.0 °F 46.4 °F 87% 30.64 in 10.0 mi SSE 3.5 mph - N/A Rain Light Rain
6:22 PM 51.8 °F 46.4 °F 82% 30.63 in 10.0 mi Calm Calm - N/A   Light Drizzle
6:42 PM 51.8 °F 46.4 °F 82% 30.63 in 10.0 mi SE 3.5 mph - N/A   Mostly Cloudy
7:02 PM 51.8 °F 46.4 °F 82% 30.63 in 10.0 mi ESE 3.5 mph - N/A   Mostly Cloudy
7:22 PM 51.8 °F 44.6 °F 76% 30.62 in 10.0 mi Calm Calm - N/A   Mostly Cloudy
7:42 PM 50.0 °F 44.6 °F 82% 30.62 in 10.0 mi Calm Calm - N/A   Mostly Cloudy
8:01 PM 50.0 °F 44.6 °F 82% 30.61 in 10.0 mi Calm Calm - N/A   Mostly Cloudy
8:22 PM 50.0 °F 44.6 °F 82% 30.60 in 10.0 mi SE 5.8 mph - N/A   Clear
8:42 PM 50.0 °F 44.6 °F 82% 30.60 in 10.0 mi SE 5.8 mph - N/A   Mostly Cloudy
9:02 PM 51.8 °F 44.6 °F 76% 30.60 in 10.0 mi SE 3.5 mph - N/A   Mostly Cloudy
9:21 PM 50.0 °F 44.6 °F 82% 30.61 in 10.0 mi Calm Calm - N/A   Mostly Cloudy
9:42 PM 50.0 °F 42.8 °F 76% 30.61 in 10.0 mi ESE 4.6 mph - N/A   Scattered Clouds
10:02 PM 50.0 °F 42.8 °F 76% 30.61 in 10.0 mi SE 3.5 mph - N/A   Scattered Clouds
10:22 PM 51.8 °F 42.8 °F 71% 30.61 in 10.0 mi SE 3.5 mph - N/A   Mostly Cloudy
10:42 PM 53.6 °F 42.8 °F 67% 30.61 in 10.0 mi Calm Calm - N/A   Scattered Clouds
11:02 PM 53.6 °F 41.0 °F 62% 30.62 in 10.0 mi Calm Calm - N/A   Scattered Clouds
11:22 PM 53.6 °F 41.0 °F 62% 30.61 in 10.0 mi Calm Calm - N/A   Scattered Clouds
11:42 PM 53.6 °F 41.0 °F 62% 30.61 in 10.0 mi Calm Calm - N/A   Mostly Cloudy